Total_Precipitation_Accumulation
0.57 0.51 0.44 0.49 0.52 0.47 0.47 0.51 0.65 0.82 0.95 1.05 1.18 1.42 1.58 1.68 1.69 1.68 1.73 1.64 1.45 1.53 1.64 1.62 1.85 1.92 1.91 1.92 1.87 2.01 2.05 1.80 1.63 1.95 1.93 1.54 1.25 1.13 1.21 1.30 1.35 1.46 1.46
0.48 0.45 0.37 0.36 0.39 0.39 0.40 0.46 0.59 0.82 1.04 1.23 1.40 1.58 1.89 2.05 2.05 2.12 2.05 1.98 1.86 1.88 1.80 1.88 2.11 2.17 2.29 2.39 2.24 2.38 2.48 2.16 1.86 2.30 2.77 2.34 1.91 1.31 1.09 1.23 1.38 1.55 1.57
0.38 0.39 0.35 0.31 0.28 0.30 0.33 0.39 0.49 0.71 1.00 1.29 1.53 1.73 1.95 2.21 2.29 2.20 2.16 2.18 2.24 2.28 2.16 2.11 2.25 2.28 2.36 2.58 2.62 2.57 2.69 2.63 2.28 2.24 2.74 2.71 2.37 1.96 1.43 1.27 1.34 1.51 1.61
0.37 0.35 0.33 0.34 0.29 0.30 0.34 0.40 0.49 0.63 0.84 1.10 1.41 1.65 1.90 2.22 2.30 2.27 2.25 2.29 2.37 2.44 2.39 2.33 2.40 2.42 2.39 2.53 2.61 2.58 2.81 3.03 2.77 2.49 2.26 2.21 2.26 2.32 1.94 1.52 1.39 1.52 1.60
0.40 0.35 0.34 0.34 0.36 0.36 0.40 0.49 0.58 0.70 0.86 1.09 1.40 1.72 1.89 2.05 2.24 2.27 2.18 2.12 2.19 2.19 2.15 2.25 2.41 2.43 2.42 2.44 2.61 2.72 2.92 2.94 2.88 2.75 2.60 2.43 2.27 1.94 2.02 1.93 1.68 1.64 1.55
0.40 0.41 0.44 0.44 0.43 0.48 0.55 0.66 0.73 0.90 1.03 1.09 1.21 1.37 1.58 1.85 1.97 2.08 2.12 2.14 2.15 2.02 1.92 2.02 2.11 2.20 2.27 2.26 2.31 2.46 2.62 2.82 2.97 2.90 2.72 2.66 2.60 2.41 2.25 1.95 1.81 1.87 1.71
0.50 0.57 0.64 0.60 0.57 0.61 0.72 0.81 0.88 0.94 0.98 0.93 0.96 1.08 1.24 1.47 1.60 1.68 1.88 1.96 2.00 1.95 1.89 1.85 1.91 1.98 2.02 2.12 2.30 2.30 2.34 2.53 2.73 2.74 2.67 2.67 2.52 2.44 2.48 2.25 1.91 1.82 1.71
0.61 0.75 0.85 0.85 0.80 0.81 0.84 0.84 0.87 0.82 0.80 0.82 0.86 0.90 0.96 1.12 1.23 1.31 1.46 1.59 1.58 1.57 1.55 1.60 1.68 1.82 1.91 2.00 2.15 2.21 2.17 2.25 2.32 2.35 2.49 2.58 2.49 2.29 2.24 2.26 2.33 2.08 1.84
0.74 0.92 1.07 1.10 1.01 0.95 0.91 0.90 0.92 0.85 0.77 0.78 0.85 0.87 0.91 0.92 0.94 1.00 1.00 1.08 1.16 1.19 1.22 1.28 1.41 1.61 1.73 1.78 1.89 2.04 2.04 2.09 2.09 2.16 2.23 2.25 2.31 2.18 2.02 1.99 2.09 2.22 2.02
0.96 1.08 1.20 1.19 1.14 1.17 1.13 0.97 0.92 0.93 0.84 0.90 0.91 0.85 0.83 0.79 0.78 0.83 0.88 0.90 0.97 1.06 1.16 1.18 1.25 1.37 1.47 1.56 1.72 1.86 1.95 1.98 1.95 1.94 2.01 2.05 2.11 2.13 2.10 2.06 2.06 2.05 1.99
1.15 1.18 1.25 1.23 1.11 1.11 1.07 1.04 0.98 0.95 0.95 0.96 0.96 0.84 0.82 0.82 0.79 0.78 0.82 0.91 0.98 1.07 1.13 1.17 1.21 1.23 1.32 1.37 1.48 1.63 1.78 1.80 1.81 1.71 1.74 1.84 1.91 2.08 2.12 2.09 2.05 2.02 1.93
1.10 1.14 1.21 1.16 1.02 0.99 0.87 0.89 0.97 0.97 1.04 1.03 0.95 0.86 0.88 0.89 0.92 0.89 0.85 0.89 0.93 0.94 1.03 1.14 1.13 1.12 1.17 1.26 1.36 1.45 1.52 1.63 1.59 1.50 1.52 1.62 1.69 1.83 1.95 2.05 1.96 1.96 1.91
0.87 0.87 0.90 0.99 0.96 0.92 0.84 0.89 0.95 1.01 1.01 1.04 1.04 0.92 0.81 0.83 0.87 0.87 0.81 0.79 0.83 0.86 0.98 1.12 1.24 1.16 1.06 1.16 1.25 1.29 1.32 1.34 1.29 1.27 1.32 1.37 1.44 1.57 1.68 1.78 1.87 1.88 1.81
0.65 0.64 0.61 0.69 0.73 0.76 0.81 0.86 0.96 1.10 1.13 1.11 1.05 0.99 0.92 0.93 0.86 0.78 0.75 0.76 0.74 0.70 0.75 0.89 1.01 1.07 1.04 1.01 1.02 1.05 1.20 1.21 1.12 1.04 1.03 1.06 1.08 1.19 1.33 1.44 1.59 1.75 1.88
0.48 0.49 0.47 0.49 0.53 0.56 0.65 0.72 0.82 1.01 1.12 1.19 1.16 1.07 0.99 0.88 0.80 0.73 0.64 0.65 0.58 0.56 0.63 0.79 0.96 1.02 1.03 1.05 1.05 0.98 1.02 1.08 1.11 1.04 0.93 0.85 0.85 0.94 1.03 1.13 1.39 1.59 1.75
0.36 0.35 0.38 0.39 0.44 0.49 0.56 0.57 0.67 0.83 0.94 1.00 1.03 1.07 1.02 0.85 0.75 0.66 0.58 0.54 0.52 0.52 0.54 0.63 0.79 0.94 0.92 1.08 1.13 1.05 0.96 0.97 0.98 0.98 0.96 0.95 0.91 0.79 0.75 0.82 0.99 1.23 1.44
0.31 0.29 0.30 0.33 0.39 0.48 0.52 0.57 0.66 0.77 0.80 0.85 0.87 0.91 0.89 0.74 0.67 0.56 0.48 0.49 0.49 0.51 0.51 0.57 0.70 0.84 0.98 1.01 0.90 0.97 0.99 0.95 0.96 0.93 0.92 0.95 0.94 0.99 0.89 0.83 0.81 0.85 1.02
0.24 0.29 0.28 0.27 0.30 0.38 0.49 0.62 0.65 0.65 0.65 0.70 0.72 0.71 0.71 0.65 0.57 0.47 0.44 0.44 0.46 0.50 0.51 0.53 0.57 0.65 0.84 0.89 0.79 0.97 1.01 1.01 1.01 0.99 1.00 1.03 1.06 1.02 1.13 1.11 1.01 0.94 0.93
0.15 0.20 0.20 0.20 0.21 0.23 0.27 0.32 0.37 0.39 0.40 0.49 0.56 0.61 0.61 0.57 0.51 0.46 0.51 0.54 0.52 0.50 0.48 0.47 0.48 0.52 0.61 0.70 0.67 0.81 0.96 1.07 1.07 0.97 0.95 1.01 1.03 1.23 1.27 1.18 1.15 1.08 1.02
0.08 0.11 0.15 0.14 0.14 0.15 0.17 0.19 0.21 0.24 0.25 0.31 0.37 0.45 0.51 0.54 0.56 0.66 0.72 0.71 0.66 0.58 0.51 0.46 0.45 0.48 0.51 0.64 0.53 0.64 0.81 0.99 1.12 1.05 0.98 1.13 1.09 1.10 1.05 1.02 1.20 1.18 1.07
0.06 0.08 0.10 0.11 0.13 0.13 0.13 0.15 0.17 0.16 0.17 0.17 0.23 0.33 0.49 0.55 0.63 0.75 0.78 0.74 0.66 0.58 0.53 0.49 0.45 0.45 0.54 0.68 0.61 0.68 0.78 0.91 1.02 1.04 1.04 0.99 1.07 0.91 0.86 0.92 1.06 1.21 1.15
0.07 0.07 0.08 0.09 0.12 0.13 0.11 0.12 0.18 0.17 0.18 0.17 0.21 0.29 0.39 0.51 0.64 0.73 0.71 0.70 0.70 0.63 0.57 0.57 0.53 0.54 0.63 0.69 0.69 0.70 0.76 0.83 0.92 0.92 0.81 0.79 0.86 0.72 0.68 0.67 0.80 0.99 1.02
0.07 0.08 0.09 0.09 0.10 0.10 0.11 0.11 0.14 0.17 0.17 0.17 0.17 0.19 0.27 0.40 0.57 0.64 0.65 0.65 0.68 0.66 0.63 0.60 0.57 0.57 0.62 0.71 0.82 0.71 0.63 0.61 0.69 0.73 0.71 0.62 0.59 0.58 0.53 0.57 0.66 0.73 0.88
0.06 0.06 0.07 0.07 0.08 0.10 0.11 0.14 0.16 0.16 0.15 0.17 0.17 0.16 0.17 0.21 0.29 0.36 0.43 0.50 0.54 0.56 0.56 0.56 0.57 0.59 0.59 0.58 0.63 0.64 0.60 0.54 0.53 0.51 0.44 0.41 0.44 0.50 0.51 0.51 0.53 0.59 0.81
0.08 0.06 0.07 0.08 0.08 0.09 0.09 0.12 0.14 0.16 0.16 0.17 0.18 0.18 0.19 0.21 0.23 0.24 0.28 0.33 0.35 0.43 0.49 0.49 0.51 0.51 0.53 0.54 0.58 0.57 0.58 0.62 0.65 0.66 0.56 0.49 0.47 0.47 0.50 0.51 0.56 0.68 0.79
0.07 0.07 0.08 0.09 0.09 0.10 0.10 0.10 0.11 0.12 0.14 0.14 0.14 0.13 0.14 0.17 0.19 0.21 0.23 0.25 0.26 0.31 0.34 0.35 0.36 0.34 0.41 0.50 0.49 0.50 0.51 0.54 0.62 0.68 0.68 0.67 0.65 0.63 0.61 0.59 0.56 0.57 0.65